Weather in Sidory

Russia / Volgograd Oblast     50°07′21″N   43°20′10″E
temp.,
°C
wind,
m/s
gust,
m/s
humid.,
%
clouds,
%
prec.,
mm/h
press.,
hPa
HPBL,
m
3 august, tue
tue300:00+26ssw22308 0.0 101012
03:00+27sw223337 0.0 101027
06:00+26s33395 0.0 101070
09:00+33wsw34276 0.0 1010637
12:00+36ssw462198 0.0 10102923
15:00+27ene684330 0.2 1009136
18:00+31ssw7113492 0.6 1010659
21:00+23n8157730 1.1 1011421
4 august, wed
wed400:00+21nw5886100 1.9 1013220
03:00+20nnw238794 3.0 1013100
06:00+21wnw348185 0.1 1012152
09:00+26wnw4560100 0.1 1013806
12:00+29nw444480 0.0 10131769
15:00+30nw4534100 0.0 10132666
18:00+29nw6634100 0.0 10131631
21:00+22nnw496329 0.0 1015221
5 august, thu
thu500:00+20n3763100 0.0 1016138
03:00+20n3757100 0.0 1016153
06:00+19n365798 0.0 1017184
09:00+25nne4442100 0.0 1017792
12:00+28n4331100 0.0 10162181
15:00+30n432768 0.0 10162427
18:00+28nne4429100 0.0 10161443
21:00+23ne464085 0.0 101691
6 august, fri
fri600:00+20ene410475 0.0 1016181
03:00+19ene49482 0.0 1016146
06:00+20e39480 0.0 1016190
09:00+28se453317 0.0 1015729
12:00+31se34247 0.0 10142355
15:00+33ese45215 0.0 10122846
18:00+32e56245 0.0 10111041
21:00+26ese512325 0.0 1012234
7 august, sat
sat700:00+24ese61432100 0.0 1012283
03:00+23ese51430100 0.0 1012338
06:00+23ese51431100 0.0 1012380
09:00+29se61024100 0.0 1013664
12:00+33se7719100 0.0 10121868
15:00+34ese6616100 0.0 10112413
18:00+32e5820100 0.0 1011589
21:00+27e4825100 0.0 1012118